Regional Weather Roundup
Issued by NWS

Home | Current Version | Previous Version | Graphics & Text | Print | Product List | Glossary On
Versions: 1 2 3 4 5 6 7 8 9 10 11 12 13 14 15 16 17 18 19 20 21 22 23 24 25 26 27 28 29 30 31 32 33 34 35 36 37 38 39 40 41 42 43 44 45 46 47 48 49 50
000
ASUS43 KBIS 211020
RWRND

NORTH DAKOTA REGIONAL WEATHER ROUNDUP
NATIONAL WEATHER SERVICE BISMARCK ND
400 AM CST SUN DEC 21 2014

NOTE: "FAIR" INDICATES FEW OR NO CLOUDS BELOW 12,000 FEET WITH NO
SIGNIFICANT WEATHER AND/OR OBSTRUCTIONS TO VISIBILITY.


NDZ001>003-009>011-017-211100-
NORTHWEST NORTH DAKOTA

CITY           SKY/WX    TMP DP  RH WIND       PRES   REMARKS
WILLISTON      CLEAR     18  15  88 CALM      29.59F
MINOT          CLEAR     24  19  81 SW10      29.63F WCI  14
MINOT AFB      CLEAR     20  20  99 SW5       29.63F WCI  14
$$

NDZ018>021-031>035-040>046-211100-
SOUTHWEST NORTH DAKOTA

CITY           SKY/WX    TMP DP  RH WIND       PRES   REMARKS
BISMARCK       CLEAR     12   9  87 E5        29.70F WCI   4
DICKINSON      MOCLDY    26  21  81 S8        29.60F WCI  18
GARRISON         N/A     20  18  92 SE3       29.65F
HETTINGER ARPT PTCLDY    25  21  85 CALM      29.66F
$$

NDZ004>008-012>016-024-026-027-054-211100-
NORTHEAST NORTH DAKOTA

CITY           SKY/WX    TMP DP  RH WIND       PRES   REMARKS
GRAND FORKS    CLOUDY    30  28  92 S12       29.77F
GRND FRKS AFB  CLOUDY    28  28 100 S12       29.75F WCI  18
DEVILS LAKE    PTCLDY    21  16  79 S6        29.67F WCI  14
$$

NDZ022-023-025-028>030-036>039-047>053-211100-
SOUTHEAST NORTH DAKOTA

CITY           SKY/WX    TMP DP  RH WIND       PRES   REMARKS
FARGO          CLOUDY    32  29  88 S12       29.80F FOG
JAMESTOWN      FOG       24  22  91 S9        29.72F VSB 1/2 WCI  14
$$




USA.gov is the U.S. government's official web portal to all federal, state and local government web resources and services.